sat.trackr.live / text

‹ back to catalog

STARLINK-30878

NORAD 58359 · 2023-177J

PAYLOAD ACTIVE UNKNOWN

§ Identity

Operator
Country
US
Launch date
2023-11-18
Launch site
AFETR
Launch vehicle
Mass (kg)
RCS (m²)

Purposes: comms

External: N2YO · Heavens-Above · Gunter

§ Orbital elements

Epoch: 2026-05-25T02:19:40.221120Z

Period
94.27 min
Inclination
43.0060°
Eccentricity
0.0001392
Mean motion
15.27568173 rev/d
Perigee alt
482.1 km
Apogee alt
484.0 km
Semi-major
6,861.2 km
B*
6.2448e-5
RAAN
282.4344°
Arg perigee
283.7732°
Mean anomaly
76.2965°
Rev number
13,987

§ Raw data

STARLINK-308781 58359U 23177J   26145.09699330  .00001456  00000+0  62448-4 0  99902 58359  43.0060 282.4344 0001392 283.7732  76.2965 15.27568173139877

JSON: /api/v1/satellites/58359 · /tle

For live sub-satellite position, see the globe view (requires WebGL).

§ Visibility from observer

Set your observer location to see the next 7 days of passes ≥ 10°. The values pass through the URL so the page stays shareable.

No JS? Fill the form by hand. The geolocation button needs JavaScript.